Date,TemperatureHighF,TemperatureAvgF,TemperatureLowF,DewpointHighF,DewpointAvgF,DewpointLowF,HumidityHigh,HumidityAvg,HumidityLow,PressureMaxIn,PressureMinIn,WindSpeedMaxMPH,WindSpeedAvgMPH,GustSpeedMaxMPH,PrecipitationSumIn
2013-2-1,29,19,12,28,8,2,94,64,44,0.00,40.00,14,5,25,0.55
2013-2-2,29,20,10,27,16,7,91,86,71,0.00,40.00,4,1,9,1.65
2013-2-4,42,38,33,36,28,22,90,69,49,0.00,40.00,6,1,11,1.10
2013-2-5,46,40,36,40,36,31,94,85,67,0.00,40.00,9,2,17,0.00
2013-2-6,48,40,31,32,28,26,80,63,44,0.00,40.00,7,2,16,0.00
2013-2-7,63,44,31,36,31,26,83,62,28,0.00,40.00,4,1,9,0.00
2013-2-8,49,42,36,43,34,26,89,71,63,0.00,40.00,12,4,25,0.00
2013-2-9,45,36,27,23,20,16,82,52,30,0.00,40.00,4,2,7,0.00
2013-2-10,57,41,26,42,28,21,84,64,27,0.00,40.00,7,1,19,1.10
2013-2-11,61,53,43,49,35,23,82,52,25,0.00,40.00,19,7,34,0.00
2013-2-12,56,42,31,29,24,19,80,52,26,0.00,40.00,7,2,16,0.00
2013-2-13,43,36,31,34,30,25,90,78,52,0.00,40.00,7,2,12,3.34
2013-2-14,55,41,30,37,32,28,91,72,43,0.00,40.00,10,3,22,0.00
2013-2-15,42,37,33,37,32,27,90,82,66,0.00,40.00,6,1,12,1.10
2013-2-16,36,30,23,27,18,8,87,63,35,0.00,40.00,9,3,19,0.55
2013-2-17,33,24,19,13,8,3,74,50,28,0.00,40.00,12,4,19,0.00
2013-2-18,60,37,15,33,21,11,86,55,32,0.00,40.00,7,3,16,0.00
2013-2-19,52,42,31,39,27,14,85,57,35,0.00,40.00,17,8,28,0.00
2013-2-20,36,29,22,16,13,11,66,51,37,0.00,40.00,11,5,19,0.00
2013-2-21,37,27,15,18,15,11,87,63,43,0.00,40.00,6,1,14,0.00
2013-2-22,62,42,30,47,36,17,92,78,52,0.00,40.00,14,2,25,1.10
2013-2-23,53,44,35,40,34,26,87,69,40,0.00,40.00,9,2,12,0.00
2013-2-24,47,36,26,29,24,20,91,65,37,0.00,40.00,9,2,18,0.00
2013-2-25,50,36,22,24,21,19,87,56,30,0.00,40.00,6,2,14,0.00
2013-2-26,53,44,38,47,34,21,89,69,48,0.00,40.00,7,4,17,1.65
2013-2-27,43,40,36,37,34,31,83,79,72,0.00,40.00,12,7,21,0.55
2013-2-28,37,36,34,34,31,28,90,82,73,0.00,40.00,11,5,16,0.00